QPF
0.01 0.02 0.03 0.04 0.04 0.03 0.03 0.03 0.03 0.03 0.02 0.02 0.02 0.02 0.02 0.02 0.01 0.01 0.02 0.01 0.02 0.03 0.05 0.03 0.02 0.01 0.01 0.01 0.01 0.01 0.02 0.02 0.01 0.01 0.01 0.01 0.01 0.02 0.02 0.01 0.01 0.01 0.01
0.02 0.02 0.02 0.04 0.04 0.04 0.03 0.03 0.03 0.03 0.04 0.05 0.03 0.02 0.02 0.02 0.03 0.02 0.02 0.03 0.03 0.04 0.06 0.06 0.05 0.04 0.03 0.03 0.02 0.02 0.04 0.04 0.03 0.01 0.01 0.01 0.01 0.01 0.02 0.03 0.02 0.02 0.02
0.02 0.03 0.03 0.03 0.04 0.05 0.05 0.05 0.05 0.06 0.05 0.05 0.05 0.05 0.05 0.04 0.03 0.04 0.03 0.04 0.04 0.03 0.04 0.04 0.05 0.05 0.05 0.04 0.03 0.05 0.06 0.05 0.03 0.03 0.02 0.02 0.02 0.01 0.02 0.02 0.03 0.03 0.02
0.03 0.04 0.04 0.05 0.07 0.05 0.06 0.07 0.06 0.07 0.07 0.06 0.07 0.07 0.06 0.06 0.04 0.03 0.02 0.04 0.06 0.05 0.06 0.03 0.03 0.04 0.05 0.05 0.04 0.05 0.04 0.04 0.03 0.02 0.02 0.02 0.02 0.02 0.01 0.02 0.02 0.02 0.02
0.04 0.05 0.06 0.08 0.08 0.06 0.07 0.05 0.06 0.07 0.07 0.07 0.06 0.07 0.07 0.07 0.06 0.04 0.03 0.03 0.05 0.04 0.05 0.04 0.03 0.03 0.03 0.04 0.05 0.05 0.05 0.04 0.04 0.03 0.03 0.03 0.03 0.02 0.02 0.02 0.02 0.02 0.02
0.03 0.05 0.05 0.06 0.07 0.08 0.10 0.10 0.10 0.09 0.07 0.08 0.05 0.05 0.05 0.04 0.05 0.06 0.05 0.04 0.04 0.04 0.03 0.06 0.06 0.03 0.02 0.02 0.04 0.04 0.05 0.05 0.05 0.03 0.03 0.04 0.04 0.03 0.02 0.02 0.02 0.02 0.02
0.04 0.04 0.04 0.06 0.07 0.08 0.09 0.09 0.09 0.08 0.07 0.09 0.10 0.08 0.06 0.03 0.03 0.04 0.03 0.05 0.04 0.05 0.04 0.06 0.07 0.06 0.04 0.02 0.02 0.03 0.03 0.04 0.04 0.04 0.03 0.03 0.03 0.03 0.02 0.02 0.01 0.01 0.01
0.05 0.04 0.05 0.05 0.05 0.08 0.09 0.08 0.08 0.09 0.08 0.08 0.10 0.11 0.08 0.06 0.04 0.02 0.03 0.04 0.04 0.04 0.03 0.03 0.04 0.06 0.05 0.07 0.03 0.02 0.02 0.02 0.03 0.03 0.03 0.03 0.03 0.02 0.02 0.02 0.01 0.01 0.01
0.05 0.04 0.05 0.06 0.06 0.06 0.07 0.09 0.08 0.11 0.11 0.09 0.07 0.09 0.08 0.07 0.07 0.03 0.01 0.03 0.03 0.04 0.04 0.04 0.04 0.05 0.05 0.07 0.06 0.03 0.01 0.01 0.03 0.04 0.04 0.03 0.02 0.01 0.01 0.02 0.02 0.01 0.01
0.07 0.04 0.06 0.06 0.06 0.05 0.08 0.07 0.06 0.08 0.10 0.09 0.06 0.05 0.05 0.05 0.07 0.06 0.03 0.01 0.01 0.03 0.05 0.04 0.04 0.06 0.06 0.06 0.06 0.03 0.01 0.02 0.03 0.04 0.05 0.04 0.03 0.02 0.02 0.02 0.02 0.02 0.01
0.08 0.06 0.05 0.06 0.06 0.05 0.08 0.08 0.07 0.07 0.07 0.08 0.06 0.05 0.05 0.04 0.03 0.05 0.06 0.03 0.02 0.01 0.03 0.03 0.04 0.05 0.04 0.04 0.05 0.04 0.02 0.01 0.02 0.03 0.04 0.04 0.04 0.04 0.03 0.03 0.02 0.03 0.03
0.10 0.09 0.07 0.07 0.05 0.06 0.07 0.08 0.09 0.07 0.07 0.08 0.08 0.06 0.06 0.05 0.04 0.04 0.05 0.04 0.03 0.01 0.01 0.01 0.02 0.02 0.02 0.03 0.02 0.01 0.02 0.02 0.01 0.02 0.02 0.02 0.04 0.05 0.04 0.04 0.04 0.05 0.05
0.11 0.09 0.07 0.07 0.06 0.06 0.07 0.09 0.09 0.07 0.06 0.08 0.09 0.06 0.06 0.04 0.04 0.04 0.05 0.04 0.04 0.02 0.02 0.01 0.01 0.02 0.02 0.03 0.03 0.02 0.02 0.03 0.02 0.02 0.02 0.02 0.03 0.03 0.03 0.03 0.04 0.05 0.05
0.08 0.09 0.09 0.08 0.08 0.08 0.06 0.08 0.08 0.07 0.08 0.08 0.06 0.07 0.07 0.05 0.03 0.05 0.06 0.07 0.06 0.04 0.03 0.02 0.01 0.01 0.02 0.03 0.03 0.03 0.03 0.03 0.03 0.03 0.03 0.02 0.02 0.02 0.02 0.03 0.03 0.03 0.02
0.09 0.09 0.09 0.09 0.09 0.09 0.09 0.10 0.09 0.09 0.09 0.08 0.06 0.08 0.08 0.06 0.05 0.04 0.05 0.06 0.08 0.07 0.06 0.05 0.03 0.02 0.02 0.03 0.03 0.03 0.03 0.03 0.02 0.02 0.02 0.02 0.02 0.02 0.02 0.02 0.02 0.02 0.01
0.07 0.06 0.06 0.09 0.09 0.09 0.09 0.11 0.09 0.09 0.09 0.07 0.06 0.07 0.08 0.07 0.06 0.04 0.05 0.05 0.07 0.08 0.09 0.05 0.04 0.03 0.02 0.02 0.03 0.03 0.03 0.02 0.01 0.01 0.02 0.02 0.02 0.02 0.02 0.02 0.02 0.01 0.01
0.06 0.06 0.06 0.08 0.10 0.11 0.11 0.12 0.12 0.12 0.11 0.10 0.08 0.06 0.07 0.07 0.06 0.05 0.05 0.06 0.07 0.09 0.11 0.07 0.06 0.05 0.03 0.03 0.04 0.03 0.02 0.02 0.02 0.02 0.02 0.03 0.02 0.02 0.02 0.02 0.02 0.02 0.02
0.06 0.06 0.07 0.09 0.09 0.10 0.12 0.12 0.11 0.10 0.10 0.10 0.09 0.08 0.07 0.07 0.07 0.06 0.06 0.05 0.07 0.11 0.13 0.12 0.09 0.07 0.06 0.05 0.05 0.04 0.03 0.02 0.02 0.03 0.03 0.03 0.02 0.02 0.02 0.03 0.03 0.04 0.03
0.07 0.07 0.07 0.08 0.08 0.08 0.09 0.10 0.12 0.11 0.10 0.09 0.09 0.09 0.10 0.12 0.11 0.09 0.08 0.07 0.08 0.10 0.13 0.13 0.12 0.10 0.08 0.07 0.08 0.07 0.06 0.06 0.05 0.04 0.04 0.04 0.05 0.05 0.04 0.04 0.05 0.05 0.05
0.08 0.09 0.09 0.09 0.10 0.10 0.09 0.10 0.11 0.12 0.11 0.11 0.12 0.12 0.13 0.14 0.15 0.15 0.13 0.12 0.11 0.12 0.13 0.12 0.11 0.10 0.10 0.10 0.11 0.11 0.11 0.10 0.09 0.07 0.07 0.07 0.08 0.07 0.06 0.06 0.05 0.05 0.05
0.07 0.09 0.09 0.08 0.09 0.11 0.12 0.12 0.11 0.10 0.11 0.11 0.12 0.12 0.10 0.10 0.12 0.15 0.15 0.14 0.14 0.14 0.13 0.12 0.12 0.13 0.13 0.13 0.13 0.12 0.12 0.11 0.09 0.08 0.07 0.06 0.06 0.05 0.05 0.06 0.06 0.05 0.04
0.05 0.05 0.06 0.06 0.06 0.08 0.12 0.14 0.12 0.13 0.14 0.14 0.14 0.13 0.12 0.12 0.12 0.14 0.15 0.16 0.16 0.16 0.17 0.17 0.15 0.14 0.13 0.12 0.12 0.12 0.12 0.11 0.09 0.08 0.07 0.08 0.08 0.07 0.07 0.07 0.08 0.08 0.07
0.03 0.04 0.05 0.04 0.06 0.08 0.09 0.12 0.15 0.14 0.14 0.13 0.13 0.13 0.11 0.10 0.11 0.10 0.11 0.13 0.13 0.14 0.14 0.14 0.14 0.14 0.13 0.11 0.09 0.09 0.09 0.08 0.08 0.08 0.08 0.09 0.09 0.09 0.10 0.11 0.12 0.10 0.08
0.02 0.03 0.03 0.03 0.03 0.03 0.04 0.05 0.07 0.08 0.08 0.09 0.10 0.11 0.11 0.11 0.11 0.11 0.11 0.11 0.11 0.11 0.10 0.08 0.08 0.08 0.09 0.09 0.08 0.08 0.07 0.07 0.07 0.06 0.06 0.07 0.09 0.09 0.09 0.08 0.08 0.07 0.06
0.02 0.03 0.03 0.03 0.02 0.04 0.04 0.05 0.05 0.07 0.09 0.10 0.11 0.12 0.14 0.15 0.17 0.16 0.13 0.12 0.11 0.09 0.08 0.07 0.06 0.06 0.06 0.06 0.06 0.06 0.05 0.05 0.06 0.06 0.07 0.07 0.08 0.07 0.06 0.06 0.05 0.05 0.05
0.01 0.01 0.02 0.01 0.02 0.04 0.06 0.03 0.03 0.04 0.06 0.07 0.09 0.10 0.12 0.12 0.16 0.17 0.14 0.14 0.13 0.11 0.09 0.08 0.07 0.07 0.06 0.06 0.06 0.06 0.06 0.06 0.07 0.07 0.07 0.07 0.07 0.06 0.06 0.06 0.05 0.05 0.04
MSLP
1018.66 1018.93 1019.14 1019.28 1019.39 1019.48 1019.57 1019.67 1019.77 1019.86 1019.92 1019.95 1019.95 1019.93 1019.94 1020.01 1020.17 1020.43 1020.79 1021.22 1021.68 1022.11 1022.48 1022.76 1022.95 1023.07 1023.13 1023.19 1023.26 1023.35 1023.49 1023.64 1023.80 1023.94 1024.06 1024.15 1024.21 1024.25 1024.28 1024.31 1024.34 1024.36 1024.37
1018.63 1018.90 1019.11 1019.26 1019.37 1019.47 1019.56 1019.66 1019.76 1019.87 1019.95 1020.00 1020.02 1020.02 1020.04 1020.09 1020.20 1020.40 1020.69 1021.05 1021.44 1021.83 1022.19 1022.49 1022.72 1022.90 1023.03 1023.15 1023.27 1023.40 1023.54 1023.70 1023.85 1023.98 1024.10 1024.19 1024.25 1024.30 1024.34 1024.37 1024.40 1024.42 1024.43
1018.62 1018.89 1019.10 1019.26 1019.38 1019.49 1019.59 1019.71 1019.83 1019.96 1020.06 1020.14 1020.18 1020.19 1020.19 1020.21 1020.26 1020.39 1020.58 1020.85 1021.16 1021.49 1021.83 1022.13 1022.40 1022.64 1022.83 1023.01 1023.18 1023.35 1023.52 1023.68 1023.83 1023.96 1024.07 1024.15 1024.22 1024.27 1024.32 1024.36 1024.39 1024.41 1024.41
1018.61 1018.87 1019.09 1019.26 1019.40 1019.52 1019.65 1019.79 1019.93 1020.08 1020.21 1020.30 1020.36 1020.37 1020.36 1020.34 1020.34 1020.38 1020.47 1020.64 1020.86 1021.13 1021.42 1021.72 1022.01 1022.29 1022.54 1022.78 1023.00 1023.21 1023.40 1023.57 1023.72 1023.85 1023.95 1024.04 1024.11 1024.17 1024.22 1024.26 1024.30 1024.31 1024.31
1018.58 1018.83 1019.05 1019.24 1019.39 1019.54 1019.68 1019.83 1020.00 1020.16 1020.31 1020.43 1020.50 1020.52 1020.49 1020.44 1020.38 1020.35 1020.36 1020.43 1020.56 1020.75 1021.00 1021.27 1021.57 1021.87 1022.17 1022.45 1022.72 1022.96 1023.18 1023.37 1023.53 1023.66 1023.77 1023.85 1023.93 1023.99 1024.05 1024.09 1024.12 1024.13 1024.12
1018.51 1018.75 1018.97 1019.15 1019.32 1019.48 1019.64 1019.80 1019.98 1020.16 1020.32 1020.45 1020.53 1020.56 1020.53 1020.46 1020.36 1020.27 1020.21 1020.20 1020.25 1020.37 1020.56 1020.80 1021.08 1021.39 1021.71 1022.03 1022.33 1022.61 1022.86 1023.07 1023.25 1023.40 1023.51 1023.61 1023.69 1023.76 1023.81 1023.86 1023.88 1023.88 1023.86
1018.39 1018.61 1018.81 1019.00 1019.17 1019.33 1019.49 1019.66 1019.84 1020.02 1020.19 1020.33 1020.43 1020.46 1020.44 1020.36 1020.25 1020.13 1020.02 1019.95 1019.93 1019.98 1020.11 1020.31 1020.56 1020.86 1021.19 1021.53 1021.86 1022.18 1022.46 1022.70 1022.91 1023.08 1023.22 1023.33 1023.42 1023.50 1023.56 1023.60 1023.61 1023.61 1023.57
1018.22 1018.41 1018.59 1018.75 1018.91 1019.07 1019.23 1019.40 1019.57 1019.75 1019.92 1020.06 1020.17 1020.22 1020.22 1020.16 1020.05 1019.92 1019.78 1019.67 1019.60 1019.59 1019.66 1019.80 1020.02 1020.30 1020.62 1020.97 1021.32 1021.66 1021.98 1022.27 1022.51 1022.72 1022.89 1023.03 1023.15 1023.24 1023.31 1023.35 1023.37 1023.35 1023.31
1017.99 1018.13 1018.28 1018.43 1018.57 1018.72 1018.87 1019.03 1019.19 1019.36 1019.53 1019.68 1019.79 1019.87 1019.89 1019.86 1019.78 1019.65 1019.52 1019.38 1019.27 1019.22 1019.23 1019.31 1019.48 1019.72 1020.02 1020.36 1020.73 1021.10 1021.45 1021.78 1022.07 1022.33 1022.54 1022.73 1022.87 1022.99 1023.08 1023.14 1023.17 1023.17 1023.13
1017.69 1017.79 1017.90 1018.03 1018.16 1018.29 1018.43 1018.58 1018.74 1018.90 1019.05 1019.21 1019.34 1019.44 1019.50 1019.50 1019.46 1019.37 1019.24 1019.10 1018.97 1018.88 1018.84 1018.87 1018.98 1019.17 1019.43 1019.76 1020.12 1020.51 1020.90 1021.27 1021.61 1021.92 1022.19 1022.42 1022.62 1022.78 1022.90 1022.99 1023.05 1023.07 1023.06
1017.34 1017.40 1017.48 1017.57 1017.69 1017.81 1017.95 1018.08 1018.23 1018.38 1018.53 1018.69 1018.84 1018.96 1019.06 1019.12 1019.12 1019.07 1018.98 1018.85 1018.72 1018.60 1018.52 1018.49 1018.55 1018.69 1018.91 1019.20 1019.56 1019.95 1020.36 1020.77 1021.16 1021.52 1021.85 1022.14 1022.39 1022.61 1022.78 1022.92 1023.02 1023.09 1023.12
1016.95 1016.96 1017.01 1017.08 1017.18 1017.30 1017.42 1017.55 1017.68 1017.82 1017.97 1018.13 1018.29 1018.45 1018.59 1018.69 1018.76 1018.77 1018.72 1018.63 1018.52 1018.39 1018.29 1018.23 1018.23 1018.32 1018.50 1018.76 1019.09 1019.48 1019.90 1020.34 1020.77 1021.18 1021.56 1021.91 1022.22 1022.50 1022.73 1022.93 1023.09 1023.21 1023.30
1016.54 1016.51 1016.53 1016.58 1016.66 1016.76 1016.86 1016.97 1017.09 1017.21 1017.35 1017.50 1017.68 1017.86 1018.04 1018.21 1018.34 1018.42 1018.45 1018.42 1018.34 1018.24 1018.14 1018.07 1018.06 1018.12 1018.26 1018.49 1018.80 1019.17 1019.59 1020.04 1020.50 1020.95 1021.38 1021.78 1022.15 1022.48 1022.78 1023.04 1023.26 1023.45 1023.60
1016.14 1016.08 1016.06 1016.08 1016.13 1016.19 1016.27 1016.35 1016.43 1016.52 1016.63 1016.78 1016.95 1017.16 1017.38 1017.61 1017.82 1017.98 1018.10 1018.16 1018.16 1018.12 1018.07 1018.03 1018.02 1018.08 1018.21 1018.43 1018.72 1019.09 1019.50 1019.96 1020.43 1020.91 1021.37 1021.81 1022.23 1022.61 1022.96 1023.28 1023.56 1023.80 1024.00
1015.80 1015.70 1015.64 1015.62 1015.61 1015.62 1015.64 1015.66 1015.68 1015.73 1015.80 1015.91 1016.08 1016.29 1016.55 1016.84 1017.13 1017.40 1017.62 1017.80 1017.91 1017.98 1018.03 1018.06 1018.12 1018.22 1018.37 1018.60 1018.90 1019.27 1019.69 1020.15 1020.62 1021.11 1021.59 1022.06 1022.50 1022.92 1023.31 1023.67 1023.98 1024.26 1024.50
1015.56 1015.42 1015.31 1015.21 1015.14 1015.07 1015.00 1014.93 1014.87 1014.83 1014.84 1014.90 1015.04 1015.25 1015.54 1015.88 1016.25 1016.63 1016.98 1017.30 1017.57 1017.79 1017.97 1018.14 1018.31 1018.50 1018.73 1019.01 1019.35 1019.74 1020.17 1020.63 1021.11 1021.59 1022.08 1022.55 1023.00 1023.43 1023.83 1024.20 1024.53 1024.82 1025.06
1015.45 1015.27 1015.09 1014.91 1014.73 1014.55 1014.37 1014.19 1014.01 1013.88 1013.79 1013.79 1013.88 1014.08 1014.38 1014.76 1015.21 1015.70 1016.19 1016.67 1017.11 1017.52 1017.88 1018.23 1018.56 1018.89 1019.24 1019.62 1020.02 1020.45 1020.91 1021.38 1021.86 1022.34 1022.81 1023.26 1023.70 1024.11 1024.50 1024.86 1025.18 1025.45 1025.67
1015.49 1015.24 1014.98 1014.71 1014.42 1014.12 1013.80 1013.49 1013.20 1012.94 1012.76 1012.68 1012.71 1012.88 1013.18 1013.59 1014.10 1014.69 1015.31 1015.95 1016.58 1017.18 1017.76 1018.31 1018.83 1019.34 1019.84 1020.34 1020.84 1021.34 1021.83 1022.32 1022.80 1023.26 1023.70 1024.12 1024.52 1024.90 1025.26 1025.58 1025.86 1026.09 1026.27
1015.63 1015.34 1015.00 1014.62 1014.22 1013.80 1013.36 1012.92 1012.50 1012.14 1011.86 1011.70 1011.67 1011.80 1012.08 1012.51 1013.07 1013.74 1014.48 1015.26 1016.06 1016.85 1017.63 1018.38 1019.11 1019.80 1020.47 1021.10 1021.71 1022.28 1022.82 1023.32 1023.79 1024.23 1024.63 1025.01 1025.36 1025.69 1025.99 1026.26 1026.49 1026.68 1026.81
1015.85 1015.50 1015.10 1014.64 1014.14 1013.62 1013.07 1012.53 1012.02 1011.57 1011.22 1010.99 1010.91 1011.00 1011.27 1011.70 1012.29 1013.01 1013.83 1014.72 1015.65 1016.60 1017.55 1018.48 1019.38 1020.25 1021.06 1021.82 1022.53 1023.17 1023.74 1024.25 1024.71 1025.11 1025.47 1025.79 1026.08 1026.35 1026.59 1026.81 1026.99 1027.13 1027.22
1016.08 1015.70 1015.25 1014.74 1014.18 1013.59 1012.98 1012.38 1011.82 1011.33 1010.93 1010.67 1010.57 1010.64 1010.89 1011.32 1011.91 1012.65 1013.50 1014.45 1015.47 1016.52 1017.58 1018.64 1019.67 1020.66 1021.58 1022.44 1023.21 1023.89 1024.48 1024.99 1025.42 1025.77 1026.08 1026.34 1026.58 1026.79 1026.97 1027.14 1027.27 1027.38 1027.43
1016.27 1015.88 1015.42 1014.90 1014.33 1013.72 1013.11 1012.51 1011.95 1011.46 1011.08 1010.82 1010.72 1010.79 1011.04 1011.45 1012.03 1012.76 1013.62 1014.57 1015.60 1016.69 1017.80 1018.91 1020.00 1021.04 1022.02 1022.91 1023.70 1024.39 1024.97 1025.45 1025.84 1026.15 1026.40 1026.60 1026.78 1026.94 1027.08 1027.21 1027.31 1027.39 1027.43
1016.41 1016.04 1015.60 1015.11 1014.57 1014.01 1013.44 1012.90 1012.39 1011.97 1011.65 1011.45 1011.38 1011.48 1011.73 1012.13 1012.69 1013.38 1014.19 1015.10 1016.09 1017.14 1018.22 1019.31 1020.38 1021.40 1022.36 1023.23 1024.00 1024.65 1025.19 1025.63 1025.96 1026.21 1026.41 1026.56 1026.69 1026.81 1026.92 1027.02 1027.11 1027.18 1027.22
1016.51 1016.18 1015.80 1015.37 1014.91 1014.44 1013.97 1013.53 1013.14 1012.82 1012.59 1012.48 1012.49 1012.63 1012.90 1013.30 1013.82 1014.45 1015.19 1016.02 1016.91 1017.86 1018.84 1019.84 1020.82 1021.76 1022.64 1023.43 1024.13 1024.71 1025.19 1025.56 1025.83 1026.03 1026.18 1026.29 1026.38 1026.47 1026.56 1026.65 1026.74 1026.81 1026.85
1016.60 1016.35 1016.04 1015.71 1015.35 1015.00 1014.66 1014.35 1014.10 1013.91 1013.81 1013.81 1013.90 1014.10 1014.40 1014.79 1015.28 1015.85 1016.49 1017.20 1017.97 1018.78 1019.62 1020.47 1021.31 1022.12 1022.87 1023.55 1024.14 1024.64 1025.03 1025.34 1025.55 1025.71 1025.82 1025.90 1025.97 1026.05 1026.13 1026.21 1026.29 1026.36 1026.41
1016.75 1016.57 1016.36 1016.14 1015.91 1015.68 1015.47 1015.31 1015.19 1015.14 1015.16 1015.27 1015.45 1015.70 1016.03 1016.42 1016.87 1017.37 1017.91 1018.50 1019.13 1019.78 1020.46 1021.14 1021.82 1022.47 1023.08 1023.64 1024.12 1024.52 1024.84 1025.08 1025.25 1025.37 1025.45 1025.52 1025.58 1025.65 1025.73 1025.80 1025.88 1025.94 1025.98
Thickness
5744 5743 5740 5739 5740 5739 5737 5736 5736 5735 5735 5735 5735 5735 5735 5734 5735 5734 5728 5723 5721 5720 5718 5717 5715 5714 5712 5711 5710 5709 5708 5707 5706 5705 5704 5703 5702 5701 5700 5699 5698 5697 5697
5743 5742 5739 5738 5739 5738 5738 5736 5736 5735 5735 5735 5735 5734 5734 5734 5732 5731 5730 5725 5722 5720 5718 5717 5715 5714 5712 5710 5709 5708 5707 5706 5706 5705 5703 5702 5701 5700 5699 5698 5697 5696 5695
5740 5740 5740 5738 5738 5737 5736 5735 5734 5735 5735 5735 5735 5734 5734 5733 5732 5731 5731 5729 5726 5722 5719 5717 5716 5714 5712 5711 5709 5708 5707 5706 5705 5704 5703 5702 5701 5700 5699 5698 5697 5696 5695
5738 5737 5738 5739 5737 5737 5736 5736 5737 5736 5736 5735 5734 5734 5734 5732 5732 5731 5731 5729 5728 5727 5722 5719 5716 5714 5713 5711 5710 5709 5707 5706 5705 5704 5703 5702 5701 5699 5698 5697 5696 5695 5694
5737 5737 5737 5737 5736 5736 5736 5738 5737 5736 5734 5734 5735 5734 5735 5734 5732 5732 5731 5731 5729 5727 5726 5721 5718 5716 5714 5712 5711 5709 5708 5707 5705 5704 5703 5702 5700 5699 5698 5696 5695 5694 5693
5737 5736 5736 5735 5736 5736 5735 5736 5735 5734 5734 5733 5736 5736 5735 5735 5734 5733 5732 5731 5729 5728 5727 5725 5721 5718 5715 5713 5711 5710 5709 5707 5706 5704 5703 5702 5700 5699 5697 5696 5695 5694 5692
5737 5735 5737 5735 5735 5736 5735 5735 5735 5734 5733 5734 5732 5731 5733 5736 5735 5734 5733 5732 5732 5730 5728 5726 5723 5722 5719 5715 5713 5711 5709 5708 5706 5705 5703 5702 5700 5698 5697 5695 5694 5693 5691
5737 5736 5735 5736 5736 5735 5734 5734 5734 5735 5735 5735 5732 5728 5726 5729 5732 5736 5734 5732 5732 5731 5730 5728 5725 5722 5721 5719 5716 5713 5710 5708 5706 5705 5703 5701 5699 5698 5696 5694 5692 5691 5690
5738 5737 5736 5736 5737 5737 5736 5734 5735 5733 5733 5735 5736 5731 5726 5724 5730 5734 5734 5733 5732 5731 5730 5728 5726 5723 5721 5719 5718 5713 5711 5709 5706 5704 5702 5700 5698 5696 5694 5692 5691 5689 5688
5739 5738 5737 5736 5736 5737 5736 5735 5737 5735 5733 5732 5734 5734 5734 5734 5726 5725 5731 5734 5732 5730 5729 5729 5727 5724 5721 5719 5716 5714 5711 5708 5706 5703 5701 5699 5696 5694 5692 5690 5688 5687 5685
5739 5738 5738 5737 5736 5737 5737 5736 5736 5735 5736 5734 5734 5733 5732 5731 5731 5727 5724 5728 5730 5730 5728 5727 5726 5724 5722 5719 5716 5713 5710 5707 5704 5701 5699 5697 5694 5692 5690 5688 5686 5684 5682
5740 5739 5738 5737 5736 5737 5736 5735 5735 5735 5735 5734 5734 5734 5732 5730 5730 5729 5725 5724 5725 5727 5727 5726 5724 5722 5720 5718 5715 5711 5708 5704 5702 5699 5696 5694 5692 5689 5687 5685 5682 5680 5679
5740 5739 5739 5737 5737 5736 5736 5735 5734 5735 5734 5733 5731 5732 5733 5733 5733 5731 5727 5725 5723 5724 5723 5722 5721 5719 5718 5715 5712 5708 5704 5701 5698 5695 5692 5690 5687 5685 5682 5680 5678 5676 5674
5741 5741 5739 5737 5737 5736 5736 5735 5735 5734 5733 5732 5732 5731 5731 5732 5732 5731 5727 5722 5717 5718 5718 5717 5718 5716 5713 5710 5706 5703 5700 5696 5693 5691 5688 5685 5682 5680 5677 5674 5672 5670 5667
5741 5740 5738 5737 5736 5735 5734 5733 5734 5733 5732 5731 5731 5729 5728 5729 5729 5729 5727 5724 5716 5710 5709 5711 5711 5710 5707 5703 5699 5697 5694 5690 5687 5685 5682 5679 5676 5673 5671 5668 5665 5663 5660
5739 5738 5737 5736 5735 5734 5733 5731 5732 5731 5729 5728 5727 5726 5725 5725 5725 5724 5723 5721 5718 5712 5706 5707 5705 5704 5700 5697 5692 5689 5686 5683 5679 5677 5674 5671 5669 5666 5663 5661 5658 5655 5652
5738 5736 5735 5734 5734 5733 5731 5729 5728 5727 5725 5724 5724 5722 5721 5720 5720 5720 5719 5716 5713 5709 5701 5701 5698 5695 5691 5688 5685 5682 5679 5676 5672 5668 5666 5663 5660 5657 5655 5652 5649 5645 5642
5737 5735 5734 5732 5731 5730 5729 5727 5725 5724 5722 5720 5719 5717 5716 5716 5713 5713 5712 5710 5707 5704 5699 5693 5690 5686 5682 5680 5677 5674 5672 5669 5665 5660 5657 5654 5650 5647 5645 5642 5639 5635 5632
5734 5733 5732 5729 5728 5727 5725 5725 5723 5721 5719 5717 5715 5713 5711 5710 5708 5707 5705 5703 5701 5699 5694 5689 5683 5679 5675 5672 5668 5666 5663 5659 5656 5651 5647 5644 5640 5637 5634 5631 5627 5624 5621
5731 5730 5728 5727 5725 5723 5722 5721 5719 5717 5715 5712 5710 5708 5706 5705 5703 5701 5699 5696 5693 5690 5687 5682 5677 5672 5667 5664 5660 5657 5653 5649 5646 5642 5638 5633 5629 5626 5623 5620 5616 5613 5609
5728 5726 5724 5722 5721 5719 5717 5716 5714 5711 5708 5705 5704 5702 5700 5698 5697 5695 5694 5690 5687 5683 5680 5675 5670 5665 5661 5656 5653 5650 5645 5641 5635 5632 5629 5624 5620 5617 5613 5608 5604 5600 5597
5723 5721 5719 5717 5715 5713 5710 5709 5707 5705 5702 5699 5696 5695 5693 5691 5689 5686 5684 5681 5679 5676 5672 5668 5664 5658 5653 5650 5646 5643 5638 5633 5627 5622 5619 5614 5610 5605 5601 5597 5591 5587 5583
5718 5716 5713 5712 5709 5706 5704 5702 5700 5699 5696 5693 5690 5688 5686 5684 5682 5679 5674 5670 5667 5664 5662 5660 5656 5652 5647 5642 5639 5635 5629 5625 5618 5611 5607 5602 5598 5594 5588 5582 5577 5573 5569
5712 5709 5707 5705 5702 5699 5696 5695 5693 5691 5688 5685 5683 5681 5678 5675 5673 5670 5667 5662 5657 5653 5651 5648 5646 5642 5638 5634 5631 5626 5619 5612 5605 5600 5596 5593 5587 5583 5577 5571 5564 5560 5556
5704 5702 5700 5697 5695 5692 5689 5688 5686 5684 5681 5677 5674 5671 5670 5667 5663 5661 5658 5653 5647 5641 5636 5634 5631 5627 5624 5621 5618 5616 5609 5606 5598 5590 5585 5582 5576 5571 5567 5562 5555 5549 5545
5697 5696 5692 5690 5688 5685 5681 5680 5678 5678 5674 5670 5666 5662 5658 5656 5653 5651 5649 5644 5638 5631 5627 5623 5618 5614 5611 5607 5604 5602 5600 5596 5591 5582 5574 5570 5566 5562 5558 5552 5546 5540 5536